{"data":{"norad_id":68387,"intl_designator":"2026-063H","name":"STARLINK-37223","alt_names":[],"object_type":"PAYLOAD","status":"ACTIVE","operator":null,"country":"US","launch_date":"2026-03-26","launch_site_code":"AFWTR","launch_vehicle":null,"mission":null,"orbit_class":"UNKNOWN","rcs_meters":null,"size_class":null,"mass_kg":null,"dimensions":null,"purposes":["comms"],"wikipedia_slug":null,"has_3d_model":false,"image_url":null,"decayed_at":null,"tle_current":{"epoch":"2026-09-18T15:21:19.876896Z","epoch_age_seconds":209169,"freshness":"STALE","line1":"1 68387U 26063H   26261.63981339  .00016891  00000+0  52440-3 0  9990","line2":"2 68387  97.2864  42.5279 0000854  83.5869 276.5471 15.33441707 27461","mean_motion":15.33441707,"eccentricity":8.54e-5,"inclination_deg":97.2864,"raan_deg":42.5279,"arg_perigee_deg":83.5869,"mean_anomaly_deg":276.5471,"bstar":0.0005244,"rev_number":2746,"period_min":93.906406316363,"perigee_km":464.96852102322,"apogee_km":466.13742327046,"semimajor_km":6843.6899721468,"source":"CELESTRAK","updated_at":"2026-09-20T09:00:43.893958Z"}}}